{"data":{"norad_id":67412,"epoch":"2026-05-25T02:33:14.343264Z","epoch_age_seconds":62256,"freshness":"FRESH","line1":"1 67412U 26005J   26145.10641601  .00015573  00000+0  57401-3 0  9990","line2":"2 67412  42.9969 166.4061 0000692 242.9923 117.0858 15.27591822 20388","mean_motion":15.27591822,"eccentricity":6.92e-5,"inclination_deg":42.9969,"raan_deg":166.4061,"arg_perigee_deg":242.9923,"mean_anomaly_deg":117.0858,"bstar":0.00057401,"rev_number":2038,"period_min":94.266019185327,"perigee_km":482.53890531878,"apogee_km":483.48848857524,"semimajor_km":6861.150696947,"source":"CELESTRAK","updated_at":"2026-05-25T13:38:21.553886Z"}}